Probability
0 1 2 3 3 4 5 5 5 4 3 2 4 5 5 4 3 3 2 1 0 0 0 0 0 1 2 4 5 4 3 3 3 3 3 3 3 3 3 3 3 3 3
0 1 3 3 3 3 4 4 4 3 3 3 3 4 4 4 3 3 3 2 1 1 1 0 0 0 2 4 4 2 2 2 3 3 3 3 3 3 3 3 3 3 2
0 1 3 3 3 3 3 3 3 3 3 2 1 2 3 3 3 3 3 3 3 2 2 1 1 0 2 3 2 1 0 1 2 2 2 2 2 2 2 2 2 1 1
0 1 3 4 4 4 3 3 3 2 1 1 0 1 3 3 3 3 3 3 3 4 4 3 2 1 2 2 1 0 0 0 1 1 1 1 1 0 1 1 1 0 0
0 1 3 5 6 5 4 3 3 2 1 1 1 3 4 4 3 3 3 3 4 4 4 3 2 2 2 1 1 0 0 0 0 0 0 0 0 0 0 0 0 0 0
0 1 3 4 5 5 4 4 3 3 2 2 2 3 3 3 3 3 3 3 3 4 3 2 2 2 2 2 1 0 0 0 0 0 0 0 0 0 0 0 0 0 0
0 1 2 3 4 5 5 5 4 3 3 3 3 2 2 2 3 3 2 2 2 3 3 2 2 4 5 5 2 0 0 0 0 0 0 0 0 0 0 0 0 0 0
0 1 2 2 3 5 5 5 4 3 3 4 3 3 2 2 2 2 1 1 1 2 3 3 4 6 7 7 5 2 0 0 0 0 0 0 0 0 0 0 0 0 0
0 0 1 1 2 3 4 5 5 4 4 4 4 3 2 1 2 2 1 0 1 2 3 4 5 6 7 7 6 3 2 1 0 0 0 0 0 0 0 0 0 0 0
0 0 0 0 1 2 3 4 5 5 5 3 2 2 1 0 1 1 1 1 2 2 3 4 5 7 8 7 6 5 3 2 0 0 0 0 0 0 0 0 0 0 0
0 0 0 0 0 1 1 2 3 3 3 2 1 0 0 0 0 0 0 1 1 1 1 3 4 5 6 6 6 5 4 2 1 0 0 0 0 0 0 0 0 0 0
0 0 1 0 0 0 0 0 1 1 1 1 0 0 0 0 0 0 0 0 0 0 0 1 2 2 2 2 3 4 4 2 1 1 0 0 0 0 0 0 0 0 0
0 0 0 0 0 0 0 0 0 0 0 0 0 0 0 0 0 0 0 0 0 0 0 0 0 0 0 0 1 2 2 1 1 1 0 0 0 0 0 0 0 0 0
0 0 0 0 0 0 0 0 0 0 0 0 0 0 0 0 0 0 0 0 0 0 0 0 0 0 0 0 0 0 0 0 0 0 0 0 0 0 0 0 0 0 0
0 0 0 0 0 0 0 0 0 0 0 0 0 0 0 0 0 0 0 0 0 0 0 0 0 0 0 0 0 0 0 0 0 0 0 0 0 0 1 1 1 1 2
0 0 0 0 0 0 0 0 0 0 0 0 0 0 0 0 0 0 0 0 0 0 0 0 0 0 0 0 0 0 0 0 0 0 0 0 0 0 1 2 3 4 4
0 0 0 0 0 0 0 0 0 0 0 0 0 0 0 0 0 0 0 0 0 0 0 0 0 0 0 0 0 0 0 0 0 0 0 0 0 0 1 1 3 4 4
0 0 0 0 0 0 0 0 0 0 0 0 0 0 0 0 0 0 0 0 0 0 0 0 0 0 0 0 0 0 0 0 0 0 0 0 0 0 0 1 2 3 3
0 1 1 0 0 0 0 0 0 0 0 0 0 0 0 0 0 0 0 0 0 0 0 0 0 0 0 0 0 0 0 0 0 0 0 0 0 0 0 0 1 1 2
1 2 2 1 0 0 0 1 1 1 0 0 0 0 0 0 0 1 1 1 1 1 0 0 0 0 0 0 0 0 0 0 0 0 0 0 0 0 0 0 0 0 1
2 2 2 1 0 0 0 1 2 2 1 0 0 0 0 0 0 1 2 2 2 2 1 0 0 0 0 0 0 0 0 0 0 0 0 0 0 0 0 0 0 0 0
3 2 2 2 1 1 2 1 2 2 1 1 0 0 0 0 0 1 2 3 3 3 2 1 1 0 0 0 0 0 0 0 0 0 0 0 0 0 0 0 0 0 0
3 4 4 4 3 3 3 3 3 3 2 2 1 0 0 0 1 1 2 3 3 3 3 3 2 1 0 0 0 0 0 0 0 0 0 0 0 0 0 0 0 0 0
4 5 6 5 3 2 3 5 5 4 3 3 2 1 1 1 2 3 3 3 3 3 3 4 4 2 1 0 0 0 0 0 0 0 0 0 0 0 0 0 0 0 0
4 5 6 4 2 1 2 5 5 5 4 4 3 3 2 3 3 3 3 3 3 3 4 4 4 2 1 0 0 0 0 0 0 0 0 0 0 0 0 0 0 0 0
4 4 4 3 1 1 2 4 5 5 5 5 4 3 3 3 3 3 3 3 3 3 4 4 3 2 1 0 0 0 0 0 0 0 0 0 0 0 0 0 0 0 0
Wind_Speed
1 2 6 6 6 7 7 7 8 9 9 9 9 9 9 9 9 9 10 10 10 9 9 9 10 12 13 15 16 16 15 15 14 13 13 13 13 12 12 12 12 9 12
2 3 6 6 6 6 6 6 7 8 8 8 8 8 8 9 9 9 9 9 9 9 9 10 11 12 13 15 16 15 15 14 14 13 13 12 12 12 12 12 11 8 11
2 2 4 6 6 6 6 6 7 7 8 8 8 7 8 8 8 8 8 8 8 9 9 10 11 12 13 14 14 14 14 13 13 12 11 7 8 11 11 11 11 10 10
2 2 4 7 7 6 6 6 6 6 7 7 7 7 7 7 8 8 8 8 8 8 9 10 12 12 13 13 13 13 13 13 12 11 6 6 6 10 10 10 10 10 9
1 1 4 7 7 7 6 6 5 5 6 6 6 6 7 7 7 8 8 7 8 8 9 10 11 11 12 12 13 12 12 12 11 8 5 5 4 8 10 9 9 9 9
1 1 3 7 7 7 6 6 5 5 5 5 5 5 6 7 7 7 7 7 8 8 9 10 10 10 11 11 11 11 11 11 9 6 5 4 4 7 9 9 9 8 8
1 1 2 6 7 6 6 5 5 4 4 4 4 4 5 6 7 8 7 8 8 8 9 9 9 10 10 10 10 10 11 10 7 6 5 4 4 7 8 8 8 8 7
2 1 2 5 6 6 5 5 4 3 3 4 4 4 4 5 7 7 7 8 8 8 8 8 8 10 10 10 9 9 10 9 7 6 5 4 5 7 8 8 7 7 7
2 2 2 2 3 4 4 4 4 3 3 3 3 4 4 5 6 6 6 7 8 8 8 7 7 9 10 9 9 9 9 9 5 4 5 3 6 7 8 8 8 7 7
3 2 2 2 2 2 1 3 3 3 3 3 3 4 4 5 5 6 6 7 7 7 7 7 7 8 8 8 8 8 8 7 4 4 3 4 6 7 8 9 8 8 7
2 2 1 1 1 1 1 2 2 2 2 2 2 3 3 2 2 3 4 6 6 7 6 6 6 6 6 7 7 7 6 3 4 3 2 5 6 7 7 8 8 8 8
1 1 1 1 1 1 1 2 2 2 2 2 2 2 2 2 1 2 3 5 6 6 6 5 5 5 4 3 4 5 2 3 3 2 3 7 7 7 7 7 8 8 7
1 1 1 1 1 1 1 1 1 1 1 1 1 1 2 2 1 1 1 2 2 3 2 3 3 2 3 2 2 2 3 2 1 1 3 6 6 7 7 6 7 7 7
2 1 1 1 1 0 0 1 1 0 0 0 0 1 1 1 1 1 1 1 1 1 2 2 2 2 3 3 3 3 2 2 1 1 2 5 5 5 5 5 6 6 6
2 1 1 1 1 1 1 0 0 0 0 0 0 1 2 2 1 1 1 1 1 1 2 2 2 2 3 2 2 3 2 2 2 1 1 3 4 4 4 5 5 6 7
2 1 1 1 1 1 1 0 0 0 0 1 1 1 2 2 2 2 2 2 1 2 2 2 3 3 2 2 3 3 2 2 2 1 1 0 1 1 2 3 5 5 5
2 2 1 2 1 1 1 0 0 0 1 1 1 1 2 2 2 3 2 2 2 2 3 3 3 3 3 3 3 3 2 2 2 2 1 1 1 1 1 2 3 3 4
2 2 1 2 2 1 1 0 1 1 1 1 1 2 2 3 3 3 3 2 2 2 2 3 3 3 3 3 2 2 1 2 2 1 1 1 1 2 2 2 2 3 4
3 2 2 1 2 1 1 1 1 1 2 1 2 2 2 3 4 3 3 2 3 3 3 3 3 3 3 2 2 2 2 2 1 1 1 1 1 1 1 2 2 3 4
2 2 2 1 1 1 2 2 2 3 2 2 2 2 2 3 3 3 3 3 3 3 3 3 4 3 2 2 3 2 2 2 2 1 1 1 1 1 1 2 2 2 2
3 2 2 2 1 1 1 2 2 1 1 2 2 2 3 3 3 3 3 3 3 3 3 4 3 4 3 2 3 3 3 3 2 2 1 1 2 1 1 2 1 1 1
4 3 3 2 2 1 1 1 2 2 1 1 2 2 2 2 2 3 3 3 3 3 3 3 3 3 2 2 2 2 2 2 2 2 1 1 2 1 2 2 2 1 1
5 4 4 3 2 2 2 2 3 3 2 2 2 1 2 2 2 2 3 3 3 3 3 3 3 4 2 1 1 2 2 1 0 1 2 1 1 1 1 2 2 1 1
6 4 4 3 2 2 2 3 4 3 2 1 1 1 2 3 3 3 3 3 3 3 3 3 3 2 3 2 1 1 2 2 2 0 1 1 2 2 2 1 2 1 1
5 5 4 3 2 2 3 3 3 2 2 2 2 2 2 2 2 2 3 3 3 2 3 3 2 2 2 2 2 2 2 2 2 2 0 1 1 2 1 1 1 1 1
5 4 4 4 3 2 3 3 3 4 3 3 2 2 1 1 2 2 2 2 2 2 2 2 2 2 2 2 2 2 2 2 2 2 1 0 1 1 2 2 1 1 1
Wind_Direction
204 182 163 149 141 133 127 125 126 127 128 127 127 126 125 125 128 129 129 129 129 127 125 124 125 133 137 138 139 140 139 137 136 136 135 133 133 134 132 130 128 127 128
159 169 164 156 146 137 129 127 130 130 130 130 130 129 128 128 129 130 128 131 132 129 127 123 122 129 134 133 136 138 138 138 136 137 135 134 134 135 134 133 132 130 133
146 173 167 159 153 145 136 132 131 131 132 131 132 132 131 130 131 132 131 133 135 132 127 127 126 126 129 131 134 136 137 138 138 137 133 130 135 136 138 137 136 135 134
163 173 166 161 159 153 145 140 135 131 130 130 129 132 131 130 134 135 136 138 139 135 132 133 131 131 130 132 132 133 134 136 137 135 127 130 136 141 141 139 141 139 138
100 145 173 161 161 156 153 147 138 130 126 126 125 130 135 133 135 138 137 136 138 136 133 133 132 134 135 135 135 135 136 141 138 130 118 122 130 142 143 143 145 142 144
93 120 173 161 160 158 154 150 144 135 133 132 130 131 138 141 144 142 138 136 134 134 134 135 136 138 138 136 139 140 139 140 136 125 122 129 137 146 147 148 147 147 148
113 117 158 156 155 153 151 149 148 142 140 145 145 143 146 145 143 140 137 133 131 130 131 135 139 142 139 139 143 145 143 142 134 131 133 139 148 153 155 152 150 150 148
122 130 140 152 146 142 144 144 142 141 142 145 147 144 144 147 144 143 142 138 135 132 132 138 145 152 150 147 145 144 147 146 139 143 144 148 158 161 159 157 157 159 159
88 88 83 103 128 137 142 142 146 146 145 141 136 133 135 144 147 147 145 139 134 133 136 143 141 151 151 147 145 144 146 143 133 143 153 153 169 173 170 169 170 173 174
69 72 66 72 74 79 102 134 133 133 125 116 114 115 121 134 147 153 149 146 142 139 142 145 140 138 146 148 148 148 144 137 138 146 149 162 176 183 181 181 181 182 181
65 60 67 65 69 70 62 106 107 118 104 91 93 107 100 88 109 141 149 152 151 154 153 149 145 145 148 146 145 141 132 131 151 154 160 174 183 189 190 189 187 185 184
72 59 86 107 105 89 79 59 42 44 49 48 47 55 67 76 91 123 140 152 150 152 152 146 142 136 126 120 126 126 119 138 152 168 181 187 193 195 196 192 193 194 192
152 107 115 140 125 97 59 56 43 35 39 48 59 67 72 69 72 84 101 145 140 138 126 123 117 114 110 116 115 113 117 128 146 176 190 193 198 200 202 199 198 199 199
115 125 97 96 106 92 63 64 66 41 20 20 67 109 106 96 84 97 117 129 122 122 119 116 119 115 114 123 128 122 123 123 124 148 196 199 203 205 208 210 205 206 204
148 155 116 91 108 93 74 15 115 203 241 232 112 122 128 131 125 108 116 121 132 125 125 126 121 118 113 112 121 126 123 115 115 138 181 194 196 202 212 213 205 207 206
176 164 130 101 109 99 90 53 26 102 176 140 118 115 124 130 129 121 107 93 103 117 122 119 120 115 107 114 113 113 112 106 99 88 59 218 194 200 217 207 203 208 208
173 151 140 135 103 100 99 53 76 68 100 109 111 101 109 120 124 123 115 106 110 115 116 113 108 103 106 106 102 105 105 103 99 83 51 18 355 336 285 226 221 221 215
156 147 153 134 113 109 99 59 53 82 99 108 108 106 109 116 120 116 110 108 109 111 118 118 110 105 97 100 102 99 94 100 93 89 62 28 8 348 320 276 241 238 233
168 158 142 104 107 106 89 68 66 76 80 91 101 102 107 111 113 112 112 112 111 105 112 123 109 113 115 111 107 91 76 77 74 75 58 21 18 358 338 326 289 259 253
158 155 151 125 108 97 78 69 60 56 49 59 84 94 100 104 108 110 110 107 106 106 106 111 113 107 121 124 113 84 62 55 55 46 28 7 3 2 1 347 332 314 290
154 154 162 158 143 103 82 79 77 67 58 57 73 85 92 102 108 111 113 108 108 114 123 125 120 114 109 110 97 75 51 51 56 46 29 14 5 356 15 14 8 358 347
175 175 170 175 161 143 123 116 116 108 92 86 72 67 73 94 111 125 122 120 116 116 114 119 120 116 117 112 116 104 56 24 19 30 25 10 353 1 11 25 30 27 19
183 187 184 182 168 156 132 102 90 72 59 61 60 64 55 77 88 102 119 121 121 127 128 127 132 134 138 115 105 126 133 173 337 7 18 27 19 29 24 31 29 32 47
193 183 175 166 156 145 130 130 134 130 128 135 117 94 65 68 81 89 103 114 117 120 127 135 126 136 141 148 108 84 117 142 135 39 351 16 31 36 27 16 9 24 51
182 174 166 150 153 147 136 144 138 130 134 114 98 92 76 66 75 89 101 110 116 126 133 130 125 130 139 146 141 125 106 89 112 140 225 346 22 24 28 24 13 19 31
171 167 158 154 171 163 149 145 147 147 145 130 123 118 97 82 73 82 105 109 113 123 127 130 128 133 144 141 143 146 151 150 158 148 156 160 9 7 24 29 24 11 24